Almeria, Spain

3:49 AM CEST on July 26, 2017 (GMT +0200)
Almeria

Weather History for LEAM - December, 2012

Change the Weather History Date:

Sunday, December 30, 2012

  Actual Average Record
Temperature  
Mean Temperature 57 °F -  
Max Temperature 64 °F 58 °F 69 °F (2000)
Min Temperature 50 °F 46 °F 39 °F (2014)
Degree Days  
Heating Degree Days 8    
Growing Degree Days 7 (Base 50)    
Moisture  
Dew Point 43 °F    
Average Humidity 56    
Maximum Humidity 68    
Minimum Humidity 39    
Precipitation  
Precipitation 0.00 in 0.04 in - ()
Sea Level Pressure  
Sea Level Pressure 30.40 in    
Wind  
Wind Speed 7 mph ()    
Max Wind Speed 13 mph    
Max Gust Speed -    
Visibility 6.8 miles    
Events      
Averages and records for this station are not official NWS values.
T = Trace of Precipitation, MM = Missing Value Source: Averaged Metar Reports

Daily Weather History Graph

Daily Weather History Graph

Search for Another Location

Airport or City:

Trip Planner

Search our weather history database for the weather conditions in past years. The results will help you decide how hot, cold, wet, or windy it might be!

Date:

Astronomy

Dec. 30, 2012 Rise Set
Actual Time 8:22 AM CET 6:02 PM CET
Civil Twilight 7:53 AM CET 6:31 PM CET
Nautical Twilight 7:20 AM CET 7:03 PM CET
Astronomical Twilight 6:49 AM CET 7:35 PM CET
Moon 8:15 PM CET (12/30) 9:25 AM CET (12/30)
Length of Visible Light 10h 38m
Length of Day
9h 40m
Waning Gibbous, 96% of the Moon is Illuminated
Dec 30
Waning Gibbous
Jan 5
Last Quarter
Jan 11
New
Jan 19
First Quarter
Jan 27
Full

Hourly Weather History & Observations

Time (CET) Temp. Dew Point Humidity Pressure Visibility Wind Dir Wind Speed Gust Speed Precip Events Conditions
1:00 AM 54 °F 46 °F 68% 30.32 in - WNW 5.8 mph - -  
5:00 AM 57.2 °F 44.6 °F 63% 30.33 in - NNE 6.9 mph - N/A   Clear
5:30 AM 57.2 °F 46.4 °F 67% 30.33 in - NE 9.2 mph - N/A   Clear
7:00 AM 55 °F 44 °F 55% 30.36 in 22 mi NNE 11.5 mph - -  
7:00 AM 57.2 °F 46.4 °F 67% 30.36 in - NNE 10.4 mph - N/A   Clear
7:30 AM 57.2 °F 42.8 °F 59% 30.36 in - North 9.2 mph - N/A   Clear
8:00 AM 53.6 °F 41.0 °F 62% 30.39 in 6.2 mi North 4.6 mph - N/A   Partly Cloudy
8:30 AM 55.4 °F 39.2 °F 54% 30.39 in 6.2 mi NW 5.8 mph - N/A   Partly Cloudy
9:00 AM 55.4 °F 39.2 °F 54% 30.39 in 6.2 mi NW 8.1 mph - N/A   Partly Cloudy
9:30 AM 55.4 °F 39.2 °F 54% 30.39 in 6.2 mi NW 12.7 mph - N/A   Partly Cloudy
10:00 AM 57.2 °F 39.2 °F 51% 30.42 in 6.2 mi NW 11.5 mph - N/A   Partly Cloudy
10:30 AM 60.8 °F 37.4 °F 42% 30.42 in 6.2 mi NW 12.7 mph - N/A   Partly Cloudy
11:00 AM 62.6 °F 37.4 °F 39% 30.42 in 6.2 mi NW 9.2 mph - N/A   Partly Cloudy
11:30 AM 66.2 °F 44.6 °F 46% 30.42 in 6.2 mi Variable 3.5 mph - N/A   Partly Cloudy
12:00 PM 64.4 °F 48.2 °F 56% 30.42 in 6.2 mi Variable 2.3 mph - N/A   Partly Cloudy
12:30 PM 64.4 °F 48.2 °F 56% 30.42 in 6.2 mi South 3.5 mph - N/A   Partly Cloudy
1:00 PM 62 °F 47 °F 47% 30.42 in 22 mi South 5.8 mph - -   Scattered Clouds
1:00 PM 62.6 °F 46.4 °F 55% 30.42 in 6.2 mi South 5.8 mph - N/A   Partly Cloudy
1:30 PM 62.6 °F 48.2 °F 59% 30.39 in 6.2 mi SW 5.8 mph - N/A   Partly Cloudy
2:00 PM 64.4 °F 46.4 °F 52% 30.39 in 6.2 mi South 4.6 mph - N/A   Partly Cloudy
2:30 PM 64.4 °F 46.4 °F 52% 30.39 in 6.2 mi South 4.6 mph - N/A   Partly Cloudy
3:00 PM 62.6 °F 50.0 °F 63% 30.36 in 6.2 mi South 6.9 mph - N/A   Partly Cloudy
3:30 PM 62.6 °F 48.2 °F 59% 30.39 in 6.2 mi SSE 6.9 mph - N/A   Partly Cloudy
4:00 PM 62.6 °F 50.0 °F 63% 30.39 in 6.2 mi SSE 9.2 mph - N/A   Partly Cloudy
5:00 PM 60.8 °F 44.6 °F 55% 30.39 in 6.2 mi ESE 6.9 mph - N/A   Partly Cloudy
5:30 PM 60.8 °F 41.0 °F 48% 30.39 in 6.2 mi East 6.9 mph - N/A   Partly Cloudy
6:00 PM 59.0 °F 42.8 °F 55% 30.39 in 6.2 mi ENE 6.9 mph - N/A   Partly Cloudy
7:00 PM 55 °F 40 °F 45% 30.43 in 19 mi NE 6.9 mph - -   Scattered Clouds
7:00 PM 55.4 °F 41.0 °F 58% 30.42 in 6.2 mi NE 5.8 mph - N/A   Partly Cloudy
8:00 PM 55.4 °F 41.0 °F 58% 30.42 in 6.2 mi NNE 6.9 mph - N/A   Partly Cloudy
8:30 PM 55.4 °F 41.0 °F 58% 30.42 in - NNE 6.9 mph - N/A   Clear
9:00 PM 55.4 °F 41.0 °F 58% 30.42 in - North 5.8 mph - N/A   Clear
9:30 PM 53.6 °F 41.0 °F 62% 30.42 in - North 6.9 mph - N/A   Clear
10:00 PM 51.8 °F 41.0 °F 67% 30.45 in - NNW 6.9 mph - N/A   Clear
10:30 PM 53.6 °F 41.0 °F 62% 30.42 in - NNW 5.8 mph - N/A   Clear